Location: Clanezzo
(45.7500°N, 9.6000°E)
Time: 04:26:27
(UTC+00:00)

USA 307 - Pass Details

Date: 12 May 2021
Orbit: 566 x 577 km, 54.0° (Epoch: 10 May)

Event Time Altitude Azimuth Distance (km) Brightness Sun altitude
Rises 21:10:04 0° 302° (WNW) 2,778 7.5 -19.6°
Reaches altitude 10° 21:12:20 10° 298° (WNW) 1,879 6.4 -19.9°
Maximum altitude 21:16:31 56° 220° (SW) 681 3.1 -20.2°
Enters shadow 21:17:05 51° 187° (S) 720 3.0 -20.3°
